Location: Colle Santa Colomba
(42.0333°N, 12.5667°E)
Time: 21:51:03
(UTC+00:00)

ARGOS - Pass Details

Date: 25 October 2021
Orbit: 820 x 835 km, 98.4° (Epoch: 05 December)

Event Time Altitude Azimuth Distance (km) Brightness Sun altitude
Rises 17:59:42 0° 178° (S) 3,354 6.3 -20.4°
Reaches altitude 10° 18:02:05 10° 183° (S) 2,427 5.6 -20.9°
Maximum altitude 18:07:21 54° 260° (W) 1,005 3.9 -21.9°
Drops below altitude 10° 18:12:40 10° 338° (NNW) 2,452 5.9 -22.8°
Sets 18:15:06 0° 343° (NNW) 3,391 6.6 -23.3°
